Annette Island, AK

3:39 AM AKDT on July 26, 2017 (GMT -0800)
Annette Island

Weather History for PANT - April, 2013

Change the Weather History Date:

Sunday, April 21, 2013

  Actual Average Record
Temperature  
Mean Temperature 42 °F 45 °F  
Max Temperature 54 °F 51 °F 73 °F (1956)
Min Temperature 30 °F 39 °F 30 °F (1975)
Degree Days  
Heating Degree Days 23 20  
Month to date heating degree days 460 452  
Since 1 July heating degree days 5798 5774  
Cooling Degree Days 0    
Month to date cooling degree days 0  
Year to date cooling degree days 0  
Moisture  
Dew Point 24 °F    
Average Humidity 0    
Maximum Humidity 0    
Minimum Humidity 0    
Precipitation  
Precipitation 0.00 in 0.22 in 1.34 in (1957)
Month to date precipitation 4.66 4.96  
Year to date precipitation 30.58 31.05  
Snow  
Snow 0.00 in 0.10 in 1.40 in (1975)
Month to date snowfall T 1.3  
Since 1 July snowfall 12.8 34.7  
Snow Depth 0.00 in    
Sea Level Pressure  
Sea Level Pressure 30.47 in    
Wind  
Wind Speed 3 mph (WNW)    
Max Wind Speed 9 mph    
Max Gust Speed 12 mph    
Visibility 10 miles    
Events      
T = Trace of Precipitation, MM = Missing Value Source: NWS Daily Summary

Daily Weather History Graph

Daily Weather History Graph

Search for Another Location

Airport or City:

Trip Planner

Search our weather history database for the weather conditions in past years. The results will help you decide how hot, cold, wet, or windy it might be!

Date:

Astronomy

Apr. 21, 2013 Rise Set
Actual Time 5:27 AM AKDT 8:03 PM AKDT
Civil Twilight 4:47 AM AKDT 8:44 PM AKDT
Nautical Twilight 3:55 AM AKDT 9:36 PM AKDT
Astronomical Twilight 2:49 AM AKDT 10:43 PM AKDT
Moon 3:17 PM AKDT (4/21) 3:36 AM AKDT (4/21)
Length of Visible Light 15h 56m
Length of Day
14h 35m
Waxing Gibbous, 81% of the Moon is Illuminated
Apr 21
Waxing Gibbous
Apr 25
Full
May 2
Last Quarter
May 9
New
May 17
First Quarter

Hourly Weather History & Observations

Time (AKDT) Temp. Windchill Dew Point Humidity Pressure Visibility Wind Dir Wind Speed Gust Speed Precip Events Conditions
12:53 AM 33.1 °F - 25.0 °F 72% 30.39 in 10.0 mi Calm Calm - N/A   Clear
1:53 AM 32.0 °F - 27.0 °F 82% 30.40 in 10.0 mi Calm Calm - N/A   Clear
2:53 AM 32.0 °F - 28.0 °F 85% 30.41 in 10.0 mi Calm Calm - N/A   Clear
3:53 AM 35.1 °F 30.1 °F 21.0 °F 57% 30.42 in 10.0 mi NNW 5.8 mph - N/A   Clear
4:53 AM 33.1 °F 28.7 °F 23.0 °F 66% 30.42 in 10.0 mi NNW 4.6 mph - N/A   Clear
5:53 AM 32.0 °F 27.5 °F 23.0 °F 69% 30.43 in 10.0 mi NNW 4.6 mph - N/A   Clear
6:53 AM 37.9 °F 33.5 °F 24.1 °F 57% 30.44 in 10.0 mi NNW 5.8 mph - N/A   Clear
7:53 AM 42.1 °F 37.7 °F 26.1 °F 53% 30.45 in 10.0 mi NNW 6.9 mph - N/A   Clear
8:53 AM 46.0 °F - 24.1 °F 42% 30.45 in 10.0 mi Calm Calm - N/A   Clear
9:53 AM 48.0 °F - 24.1 °F 39% 30.46 in 10.0 mi WNW 5.8 mph - N/A   Clear
10:53 AM 48.9 °F - 19.9 °F 32% 30.47 in 10.0 mi West 3.5 mph - N/A   Clear
11:53 AM 51.1 °F - 21.9 °F 32% 30.48 in 10.0 mi WNW 4.6 mph - N/A   Clear
12:53 PM 51.1 °F - 19.9 °F 29% 30.50 in 10.0 mi West 8.1 mph - N/A   Clear
1:53 PM 53.1 °F - 18.0 °F 25% 30.49 in 10.0 mi WNW 5.8 mph - N/A   Clear
2:53 PM 53.1 °F - 19.0 °F 26% 30.49 in 10.0 mi Variable 3.5 mph - N/A   Clear
3:53 PM 52.0 °F - 19.9 °F 28% 30.49 in 10.0 mi WNW 5.8 mph - N/A   Clear
4:53 PM 52.0 °F - 18.0 °F 26% 30.49 in 10.0 mi Variable 3.5 mph - N/A   Clear
5:53 PM 50.0 °F - 21.9 °F 33% 30.48 in 10.0 mi West 3.5 mph - N/A   Clear
6:53 PM 46.9 °F - 24.1 °F 41% 30.48 in 10.0 mi SW 4.6 mph - N/A   Clear
7:53 PM 44.1 °F - 27.0 °F 51% 30.48 in 10.0 mi Calm Calm - N/A   Clear
8:53 PM 39.9 °F - 32.0 °F 73% 30.50 in 10.0 mi Calm Calm - N/A   Clear
9:53 PM 37.0 °F - 30.9 °F 79% 30.51 in 10.0 mi Calm Calm - N/A   Clear
10:53 PM 35.1 °F - 34.0 °F 96% 30.53 in 10.0 mi Calm Calm - N/A   Clear
11:53 PM 35.1 °F - 33.1 °F 92% 30.54 in 10.0 mi Calm Calm - N/A   Clear